Theta_e
338 337 336 337 336 335 335 335 335 337 329 329 324 326 326 326 327 323 315 313 311 307 304 302 302 301 300 300 298 298 298 297 296 296 296 296 296 296
338 337 338 338 338 338 335 335 334 334 336 335 331 324 321 319 317 315 314 312 313 308 304 303 301 300 300 299 297 297 297 296 294 293 293 294 294 295
339 338 338 339 338 338 336 336 335 334 333 334 329 324 318 315 313 313 315 319 313 306 302 301 300 300 298 297 297 297 296 293 292 291 291 291 291 292
334 339 338 337 337 337 337 335 334 334 333 332 325 319 313 310 310 312 314 315 307 302 302 300 299 297 297 297 296 295 294 292 290 289 289 289 289 289
340 339 338 338 339 338 336 335 334 333 332 330 318 312 310 310 307 308 309 308 303 300 299 298 296 296 295 295 294 294 292 290 289 288 288 288 287 288
339 339 339 339 338 336 336 334 332 331 329 327 316 311 309 307 306 303 300 300 297 296 296 295 296 295 294 294 293 291 290 289 288 287 287 287 287 287
332 334 335 335 336 336 335 334 331 330 325 319 311 307 305 303 303 301 299 296 295 295 295 294 293 293 292 291 291 290 289 288 286 287 287 286 287 287
326 328 329 331 332 333 334 336 335 331 323 318 312 309 307 305 302 299 294 294 294 294 294 293 292 291 290 291 290 289 288 287 288 287 287 287 285 286
320 322 323 325 326 327 329 329 329 326 325 324 315 312 309 307 302 297 295 297 292 293 293 291 291 290 290 291 289 288 287 287 288 287 286 286 285 286
314 316 318 321 322 324 323 323 321 319 319 318 317 315 313 310 306 300 298 297 292 291 292 291 291 291 290 289 288 287 286 287 286 284 285 284 285 287
307 311 313 315 318 319 317 316 311 310 309 311 312 310 308 306 304 300 294 293 290 290 291 291 289 288 288 288 287 286 286 287 284 283 283 284 284 287
306 307 310 313 314 313 313 313 307 303 305 304 303 303 302 298 299 300 297 294 292 290 290 290 287 288 287 287 286 285 286 285 282 282 283 283 283 285
306 308 308 309 309 310 310 310 310 303 299 302 298 296 296 296 296 296 297 298 295 289 289 290 287 287 286 286 285 284 284 285 282 281 281 282 284 283
302 304 306 306 307 308 308 307 304 300 297 294 293 292 292 293 293 293 293 293 293 292 288 288 286 286 285 284 284 284 283 284 283 281 281 281 282 284
302 302 304 304 304 303 305 303 299 297 293 291 290 290 290 290 290 289 288 288 287 287 287 286 286 284 284 282 281 281 283 283 282 281 281 281 281 282
301 302 300 298 299 300 295 296 296 294 293 291 290 289 288 287 286 286 286 285 285 284 285 285 284 284 282 281 281 280 281 281 281 281 281 280 281 282
298 297 294 293 293 292 290 291 292 292 292 290 289 287 287 286 286 286 286 285 284 282 281 282 282 283 282 282 280 281 280 280 281 281 281 280 280 281
296 294 292 292 291 290 290 290 291 292 290 290 288 287 287 287 286 286 286 284 283 282 281 281 282 281 281 280 281 280 280 279 279 280 280 280 280 280
297 294 292 292 291 291 291 290 290 290 291 290 288 288 287 287 287 287 286 284 283 282 282 282 284 283 281 281 280 280 280 279 278 279 279 280 280 280
295 294 293 293 292 291 290 290 290 290 289 289 288 288 288 288 287 286 285 285 284 283 283 284 284 281 281 279 280 279 280 280 279 278 279 279 279 279
293 294 294 293 292 291 290 290 289 289 289 288 288 288 288 287 286 285 284 284 283 282 280 280 281 281 280 279 278 278 279 280 279 279 279 279 279 279
292 293 294 294 292 291 290 289 289 288 288 288 288 287 287 286 284 283 283 282 281 280 279 279 279 279 279 278 277 277 278 278 280 280 280 280 279 279
293 293 293 293 292 290 290 289 288 288 288 288 287 287 285 284 284 283 282 281 280 279 279 278 278 278 277 277 277 276 277 277 278 278 278 279 279 279
Wind_Speed
40 38 33 36 34 33 36 30 23 9 7 17 23 27 32 33 34 30 29 29 26 21 19 17 17 15 16 17 17 14 15 16 16 18 22 26 26 25
35 32 36 37 37 37 36 30 28 28 11 21 25 27 24 31 31 31 29 22 30 28 25 21 18 17 18 16 14 15 15 18 20 22 24 26 27 27
32 34 39 38 37 33 31 29 31 30 15 18 21 23 26 31 33 33 31 30 33 29 21 18 16 16 16 14 13 14 15 20 19 24 26 27 26 27
35 38 38 33 32 30 27 30 32 30 23 20 17 22 24 27 32 33 34 30 29 25 21 15 13 13 11 11 11 12 17 18 23 26 26 27 27 27
37 36 34 32 29 28 26 29 29 27 27 17 14 17 22 22 27 29 31 28 26 21 15 13 9 7 10 9 10 13 16 18 25 27 26 27 28 28
29 28 29 29 29 28 28 31 27 23 24 23 18 13 17 18 25 24 23 24 20 17 11 10 6 6 6 8 12 11 13 18 25 23 27 28 29 29
19 20 24 27 28 31 30 28 25 26 23 20 13 10 13 14 28 23 19 25 17 13 10 7 4 4 4 5 4 10 15 22 23 25 25 28 29 30
14 16 17 20 22 26 29 33 32 26 25 18 14 13 19 17 18 21 23 15 3 11 11 6 4 1 2 1 4 13 20 21 23 23 25 27 29 32
16 16 18 18 17 16 17 20 25 25 28 28 17 20 18 26 26 25 24 23 9 15 11 12 8 3 3 2 5 12 20 22 19 21 26 28 30 32
16 15 18 18 17 16 15 15 16 19 25 21 20 21 20 20 26 29 30 23 19 16 12 5 8 1 3 5 7 15 19 18 18 23 26 28 29 32
15 16 16 16 15 14 13 11 10 8 9 13 14 13 14 16 24 29 31 27 6 5 8 5 6 4 5 3 8 15 17 18 19 24 26 28 29 30
17 16 15 12 11 10 10 12 12 10 11 12 13 14 16 20 24 27 33 25 15 5 10 7 8 6 4 4 9 17 22 23 23 24 24 29 29 31
16 16 13 10 7 7 11 14 15 18 21 22 25 26 26 27 21 22 22 19 18 7 14 9 8 8 5 5 6 21 26 29 28 28 29 28 27 30
17 12 13 11 8 7 10 16 17 26 28 30 30 29 28 25 24 22 19 18 12 16 17 10 8 6 6 5 2 11 23 28 33 32 31 31 33 30
11 12 9 8 11 15 12 15 25 31 33 26 23 23 22 28 29 26 25 26 26 22 19 16 12 12 10 8 6 5 5 25 30 30 30 34 34 32
7 8 8 11 15 16 19 29 31 31 32 27 25 28 30 31 30 30 30 29 32 26 21 17 18 21 28 24 21 19 23 10 22 27 24 30 35 40
9 9 12 15 14 18 22 23 28 29 27 29 31 28 26 28 26 28 30 22 20 19 24 24 23 25 24 21 23 22 19 20 24 22 24 30 39 40
15 13 15 18 18 19 19 18 23 28 28 30 30 30 27 25 25 24 18 21 24 22 23 29 32 25 22 28 19 19 21 21 21 25 22 29 33 38
14 17 17 18 18 21 20 19 18 24 33 32 32 32 31 28 27 22 22 21 19 20 17 16 13 11 10 8 12 14 20 19 18 22 24 30 31 29
20 18 18 19 20 20 23 21 21 27 27 30 30 32 30 28 26 25 24 21 18 15 15 13 11 19 17 8 12 17 19 25 25 21 25 30 29 26
19 19 20 21 22 22 22 26 26 25 27 28 30 30 30 29 26 26 25 24 24 18 17 17 18 20 31 28 19 20 19 19 21 23 26 23 18 17
23 23 23 22 23 24 26 27 28 26 25 28 29 30 31 32 29 27 25 22 19 21 24 26 27 26 20 22 20 18 22 21 15 11 8 4 4 5
23 23 24 24 25 26 29 28 29 28 28 28 29 28 31 30 32 32 30 26 24 25 25 27 25 26 21 22 24 21 22 21 20 26 25 23 23 22
Wind_Direction
243 240 233 241 245 242 241 234 243 258 247 259 240 248 238 235 236 230 224 225 231 244 244 248 259 263 276 289 287 293 295 300 306 315 315 312 310 310
241 243 243 245 246 252 243 235 237 240 256 254 258 247 238 228 225 218 222 210 245 236 236 244 250 266 277 287 285 293 296 303 314 317 315 310 309 310
253 258 248 251 241 247 244 247 240 236 243 253 248 244 235 226 217 216 215 228 234 230 233 235 247 271 282 285 292 292 296 306 313 319 315 310 311 312
251 242 243 241 246 249 247 238 243 243 236 245 230 230 226 223 222 213 216 223 228 216 217 236 258 268 278 284 289 293 303 304 312 315 313 311 313 314
245 238 241 244 255 255 249 249 248 236 229 227 213 211 217 219 211 211 215 219 211 220 204 228 233 260 281 280 274 288 292 309 315 319 315 317 319 320
255 261 260 260 258 255 248 255 246 225 219 211 206 198 209 210 210 195 194 202 192 200 194 210 234 239 249 284 293 294 309 316 317 322 322 320 325 323
268 265 269 266 266 268 255 255 245 230 218 198 189 185 188 173 198 200 188 176 171 194 186 191 229 261 288 284 284 310 321 331 330 329 325 327 331 326
299 285 282 277 272 268 262 262 255 238 215 197 203 208 211 212 187 175 153 153 177 169 175 162 171 12 319 210 311 322 329 338 335 330 332 335 332 331
307 303 293 284 289 289 281 273 261 242 238 236 206 211 201 214 190 165 164 160 146 150 174 151 179 167 200 238 315 331 338 338 341 341 341 341 339 341
314 307 295 291 292 291 286 278 260 246 236 236 235 240 239 229 213 187 171 157 137 143 168 136 159 166 190 196 351 349 347 350 353 353 352 349 346 350
316 308 303 298 289 289 280 247 220 222 236 235 231 223 221 214 203 181 151 138 119 149 152 141 121 114 165 171 359 357 4 15 12 8 2 357 357 358
312 311 304 298 296 284 265 230 188 173 191 162 149 158 166 170 176 186 167 144 129 136 161 132 139 140 163 138 26 26 38 42 30 16 11 8 10 14
297 305 304 300 300 269 252 235 220 185 162 155 148 146 146 148 152 162 162 168 145 109 162 145 142 156 134 138 57 51 44 42 37 25 22 19 29 29
291 295 301 293 283 252 240 233 207 172 158 149 141 140 142 140 140 146 147 143 130 133 139 137 124 165 140 107 111 67 47 45 47 38 28 32 37 44
280 290 282 272 257 225 219 217 186 169 154 145 142 141 142 144 139 129 123 119 114 113 115 107 112 123 134 130 131 38 57 43 51 47 37 39 38 36
255 270 256 218 208 207 193 180 175 171 159 151 143 144 145 135 130 131 123 118 111 109 108 103 108 118 104 95 94 77 68 63 52 55 47 48 50 56
208 196 184 186 180 174 172 175 169 162 155 150 142 141 141 138 137 136 134 123 116 112 110 113 110 102 95 97 82 78 77 72 68 65 58 58 54 56
190 194 185 187 177 175 182 179 167 161 157 151 146 145 143 144 141 138 132 126 124 128 126 123 117 106 89 70 74 94 87 82 71 66 66 69 62 59
208 199 192 194 191 187 184 185 176 166 167 158 153 150 149 149 144 141 137 137 138 143 148 140 133 119 105 99 74 78 99 94 81 74 72 71 72 69
208 203 200 200 196 190 184 179 175 168 165 157 154 151 151 149 142 143 144 146 145 141 143 150 141 141 126 128 114 85 93 98 95 93 85 87 86 82
204 206 211 208 201 194 186 177 174 170 163 156 150 149 148 146 142 143 142 146 147 137 119 118 130 136 127 119 100 83 86 97 99 99 101 90 80 74
201 200 209 214 205 190 181 174 167 162 157 149 146 146 147 148 139 139 139 135 132 124 116 117 126 130 121 116 107 101 94 91 93 98 96 114 98 91
201 203 209 210 201 188 178 171 160 153 151 146 142 143 143 137 141 142 140 132 128 124 124 120 122 122 112 111 109 105 105 94 89 84 82 93 97 101